DLH595 DNAA-EDDF

Flight info

Callsign DLH595
Flight time N/A
Altitude 39000
Route OXORU1Q OXORU DCT MIMBA/N0463F400 UA604 AS UR978 CSO UA605 CIRTA DCT ERETI DCT OMARD DCT NOSTA DCT NOPMU DCT ABESI DCT LADOL T163 EMPAX EMPAX5C
Aircraft A333/H-SDE2E3FGHIJ3J4J5LM1OP2RWXYZ/LB1D1

Departure

Time 2026-04-21 13:28
Airport Nnamdi Azikiwe International Airport (DNAA)

Arrival

Time N/A
Airport Frankfurt Main Airport (EDDF)
Time Latitude Longitude Altitude Speed Heading
2026-04-21 12:46 9.00576 7.26755 1134 ft 0 kts
2026-04-21 13:02 9.00575 7.26755 1129 ft 0 kts
2026-04-21 13:12 9.00563 7.26755 1135 ft 4 kts 358°
2026-04-21 13:12 9.00536 7.26756 1137 ft 4 kts 351°
2026-04-21 13:13 9.00510 7.26762 1135 ft 4 kts 339°
2026-04-21 13:13 9.00488 7.26775 1133 ft 4 kts 302°
2026-04-21 13:13 9.00483 7.26789 1135 ft 0 kts 250°
2026-04-21 13:16 9.00482 7.26784 1136 ft 1 kts 250°
2026-04-21 13:16 9.00476 7.26769 1136 ft 4 kts 250°
2026-04-21 13:17 9.00463 7.26734 1133 ft 0 kts 248°
2026-04-21 13:17 9.00457 7.26719 1132 ft 8 kts 248°
2026-04-21 13:17 9.00423 7.26676 1132 ft 8 kts 202°
2026-04-21 13:18 9.00385 7.26682 1121 ft 8 kts 155°
2026-04-21 13:18 9.00335 7.26751 1131 ft 14 kts 92°
2026-04-21 13:18 9.00374 7.26824 1133 ft 12 kts 51°
2026-04-21 13:18 9.00436 7.26822 1132 ft 14 kts 339°
2026-04-21 13:19 9.00476 7.26768 1136 ft 8 kts 249°
2026-04-21 13:19 9.00442 7.26673 1134 ft 13 kts 268°
2026-04-21 13:19 9.00508 7.26606 1117 ft 19 kts 327°
2026-04-21 13:19 9.00603 7.26507 1112 ft 15 kts 295°
2026-04-21 13:20 9.00550 7.26429 1106 ft 20 kts 214°
2026-04-21 13:20 9.00394 7.26319 1108 ft 30 kts 215°
2026-04-21 13:20 9.00222 7.26200 1105 ft 30 kts 214°
2026-04-21 13:20 9.00052 7.26075 1102 ft 30 kts 214°
2026-04-21 13:21 8.99872 7.25950 1100 ft 32 kts 215°
2026-04-21 13:21 8.99689 7.25821 1096 ft 32 kts 215°
2026-04-21 13:21 8.99506 7.25693 1098 ft 30 kts 214°
2026-04-21 13:21 8.99371 7.25598 1098 ft 16 kts 216°
2026-04-21 13:22 8.99331 7.25569 1099 ft 0 kts 216°
2026-04-21 13:22 8.99329 7.25568 1100 ft 2 kts 216°
2026-04-21 13:22 8.99298 7.25533 1100 ft 11 kts 238°
2026-04-21 13:23 8.99300 7.25468 1098 ft 5 kts 301°
2026-04-21 13:23 8.99303 7.25463 1097 ft 0 kts 302°
2026-04-21 13:23 8.99341 7.25422 1100 ft 19 kts 328°
2026-04-21 13:23 8.99464 7.25457 1099 ft 23 kts 35°
2026-04-21 13:24 8.99645 7.25584 1097 ft 40 kts 34°
2026-04-21 13:24 8.99915 7.25772 1101 ft 54 kts 35°
2026-04-21 13:24 9.00217 7.25989 1106 ft 51 kts 35°
2026-04-21 13:24 9.00502 7.26190 1109 ft 52 kts 34°
2026-04-21 13:25 9.00824 7.26416 1108 ft 58 kts 34°
2026-04-21 13:25 9.01139 7.26640 1117 ft 53 kts 34°
2026-04-21 13:25 9.01431 7.26846 1136 ft 50 kts 36°
2026-04-21 13:25 9.01705 7.27040 1137 ft 47 kts 34°
2026-04-21 13:26 9.01894 7.27174 1136 ft 21 kts 35°
2026-04-21 13:26 9.01992 7.27199 1132 ft 14 kts
2026-04-21 13:26 9.02013 7.27239 1133 ft 4 kts 127°
2026-04-21 13:26 9.01984 7.27237 1136 ft 6 kts 205°
2026-04-21 13:27 9.01948 7.27213 1135 ft 7 kts 214°
2026-04-21 13:27 9.01905 7.27183 1137 ft 8 kts 214°
2026-04-21 13:27 9.01803 7.27112 1137 ft 35 kts 215°
2026-04-21 13:27 9.01426 7.26844 1136 ft 97 kts 215°
2026-04-21 13:28 9.00724 7.26349 1110 ft 151 kts 215°
2026-04-21 13:28 8.99752 7.25672 1394 ft 180 kts 214°
2026-04-21 13:28 8.98686 7.24943 2013 ft 189 kts 214°
2026-04-21 13:28 8.97607 7.24142 2759 ft 196 kts 217°
2026-04-21 13:29 8.96520 7.23242 3473 ft 208 kts 221°
2026-04-21 13:29 8.95428 7.22218 4206 ft 218 kts 222°
2026-04-21 13:29 8.94275 7.21192 4939 ft 224 kts 216°
2026-04-21 13:29 8.92999 7.20244 5448 ft 237 kts 217°
2026-04-21 13:30 8.91881 7.18989 5633 ft 244 kts 237°
2026-04-21 13:30 8.91134 7.17450 5487 ft 244 kts 252°
2026-04-21 13:30 8.90925 7.15759 5254 ft 243 kts 277°
2026-04-21 13:30 8.91511 7.14192 5009 ft 240 kts 308°
2026-04-21 13:31 8.92817 7.13202 4791 ft 236 kts 342°
2026-04-21 13:31 8.94434 7.13000 4793 ft 236 kts
2026-04-21 13:31 8.96089 7.13194 5050 ft 247 kts 11°
2026-04-21 13:31 8.97850 7.13548 5428 ft 266 kts 13°
2026-04-21 13:32 8.99653 7.13971 5881 ft 272 kts 15°
2026-04-21 13:32 9.01506 7.14436 6401 ft 276 kts 15°
2026-04-21 13:32 9.03377 7.14919 6924 ft 279 kts 15°
2026-04-21 13:32 9.05267 7.15414 7476 ft 281 kts 16°
2026-04-21 13:33 9.07162 7.15914 8071 ft 282 kts 17°
2026-04-21 13:33 9.09061 7.16417 8664 ft 283 kts 17°
2026-04-21 13:33 9.10967 7.16923 9237 ft 284 kts 18°
2026-04-21 13:33 9.12856 7.17426 9806 ft 285 kts 18°
2026-04-21 13:34 9.14811 7.17950 10083 ft 297 kts 18°
2026-04-21 13:34 9.16856 7.18496 10273 ft 311 kts 18°
2026-04-21 13:34 9.18995 7.19067 10460 ft 324 kts 18°
2026-04-21 13:34 9.21219 7.19659 10644 ft 336 kts 18°
2026-04-21 13:35 9.23510 7.20269 10959 ft 343 kts 18°
2026-04-21 13:35 9.25834 7.20887 11358 ft 347 kts 18°
2026-04-21 13:35 9.28180 7.21510 11780 ft 350 kts 18°
2026-04-21 13:35 9.30550 7.22140 12238 ft 353 kts 17°
2026-04-21 13:36 9.32906 7.22768 12680 ft 357 kts 17°
2026-04-21 13:36 9.35315 7.23410 13117 ft 360 kts 17°
2026-04-21 13:36 9.37744 7.24057 13554 ft 362 kts 17°
2026-04-21 13:36 9.40191 7.24709 13950 ft 365 kts 18°
2026-04-21 13:37 9.42651 7.25364 14359 ft 367 kts 17°
2026-04-21 13:37 9.45133 7.26027 14742 ft 370 kts 17°
2026-04-21 13:37 9.47632 7.26693 15116 ft 373 kts 17°
2026-04-21 13:37 9.50147 7.27364 15504 ft 376 kts 17°
2026-04-21 13:38 9.52686 7.28041 15904 ft 379 kts 17°
2026-04-21 13:38 9.55208 7.28714 16275 ft 381 kts 17°
2026-04-21 13:38 9.57784 7.29402 16656 ft 384 kts 16°
2026-04-21 13:38 9.60376 7.30094 17026 ft 387 kts 16°
2026-04-21 13:39 9.62989 7.30791 17389 ft 390 kts 16°
2026-04-21 13:39 9.65618 7.31493 17743 ft 393 kts 16°
2026-04-21 13:39 9.68268 7.32201 18090 ft 395 kts 16°
2026-04-21 13:39 9.70939 7.32914 18386 ft 398 kts 16°
2026-04-21 13:40 9.73620 7.33630 18694 ft 400 kts 16°
2026-04-21 13:40 9.76283 7.34342 18991 ft 402 kts 16°